NSS-12                  
1 36032U 09058A   19265.81299313  .00000063  00000-0  00000+0 0  9993
2 36032   0.0140 144.5948 0002786  53.3516 153.1024  1.00269335 36275
THOR 6                  
1 36033U 09058B   19266.03999656 -.00000019  00000-0  00000+0 0  9998
2 36033   0.0121 155.9820 0001729  37.9080 181.2787  1.00271942 36310
ARIANE 5 R/B            
1 36034U 09058C   19265.23494008  .00005470  00000-0  40982-3 0  9993
2 36034   6.2726 332.3731 6496794 165.3563 230.4218  3.36043386103041